Wind_Speed
27 27 27 28 28 28 27 26 25 24 22 21 19 18 19 21 22 7 10 6 5 19 21 17 13 10 12 7 10 7 7 8 4 6 9 12 16 6 3 5 8 6 1 9 26
28 28 28 28 29 29 28 27 28 27 24 21 19 17 16 19 12 13 8 8 9 25 22 20 13 13 8 9 5 10 10 13 7 9 11 12 13 8 4 5 9 9 7 18 27
28 29 29 30 30 30 30 29 31 29 24 22 20 16 12 14 10 4 1 9 12 24 16 13 11 13 11 8 9 10 15 16 12 10 13 14 14 3 6 7 10 13 14 20 23
28 29 30 30 30 30 31 30 32 26 25 24 21 16 10 3 5 5 2 4 18 17 14 14 13 13 9 10 9 14 19 17 19 12 15 14 16 14 11 12 4 11 19 22 23
29 30 31 31 31 31 32 32 29 27 26 23 19 11 2 7 9 2 3 10 23 11 15 12 10 11 13 9 9 14 19 17 16 14 12 15 17 18 18 15 3 8 20 23 21
29 30 31 32 32 33 32 33 27 26 22 18 15 3 6 11 4 3 8 17 11 13 13 14 10 9 13 14 13 15 13 16 15 15 15 16 19 12 16 5 5 12 18 20 22
28 30 32 33 34 35 35 31 27 22 11 13 9 4 7 10 2 5 8 8 6 11 12 13 12 11 3 11 9 12 14 15 16 18 17 14 16 18 18 2 5 9 12 16 20
28 30 33 33 35 34 31 27 27 9 5 10 5 2 5 3 4 7 11 14 8 11 14 14 11 15 11 11 12 13 11 13 8 4 9 7 16 14 5 5 8 9 11 15 20
28 29 32 32 34 36 27 28 12 5 6 5 1 5 0 2 4 1 5 8 5 5 6 5 12 15 12 14 15 14 15 18 9 3 8 8 13 12 5 12 16 11 13 15 19
27 28 33 33 34 29 27 13 4 3 3 4 6 5 2 7 10 11 12 11 8 6 5 10 9 12 14 15 16 18 17 12 11 6 11 16 18 14 15 15 16 13 13 16 20
26 28 32 34 38 19 23 4 3 4 2 5 7 4 5 16 1 1 3 9 11 11 13 13 12 17 21 18 22 21 18 17 13 16 11 18 13 15 16 12 12 10 10 15 18
27 27 34 35 33 16 11 5 6 5 5 1 4 7 7 6 4 4 4 5 10 15 13 10 16 18 17 17 19 20 19 20 19 16 8 14 18 15 16 12 10 9 11 14 17
27 29 34 35 15 11 7 6 6 4 5 2 2 4 6 5 5 3 3 2 8 10 12 18 19 4 12 18 21 20 21 20 20 16 14 17 18 18 9 11 8 9 7 12 17
27 31 35 37 4 11 1 3 12 4 4 4 1 3 6 6 3 0 2 5 5 9 10 11 12 16 18 21 19 23 20 18 20 18 15 6 13 15 13 11 13 9 10 12 16
28 32 35 24 12 4 2 9 7 5 4 4 2 4 10 5 8 6 4 4 8 10 6 14 6 11 16 20 19 23 20 19 16 18 18 20 11 12 10 13 13 12 10 9 14
30 35 29 5 3 5 9 10 3 5 2 1 3 6 6 2 1 6 2 4 2 7 7 12 13 12 18 16 17 17 15 18 14 14 16 18 18 13 13 9 8 8 4 7 9
34 28 9 2 5 9 8 4 5 4 4 3 4 6 3 5 1 7 5 6 8 9 9 13 10 12 12 17 14 14 15 12 14 14 16 18 19 10 10 3 6 7 7 9 10
30 12 4 3 7 7 3 5 5 2 2 1 4 3 2 8 2 7 5 3 8 14 13 9 11 7 9 12 18 16 18 14 18 14 15 9 11 12 9 0 3 4 7 8 9
24 5 2 5 6 5 5 6 3 1 2 5 4 1 2 3 4 5 4 4 7 11 12 10 10 20 8 11 12 16 10 17 19 18 14 15 12 10 9 15 8 8 9 11 12
13 5 1 5 7 6 5 3 1 2 3 3 3 3 4 6 6 6 3 7 8 11 13 7 12 15 10 14 12 13 12 14 12 18 18 14 17 11 10 15 12 13 11 13 13
4 4 3 7 5 5 5 2 2 2 3 3 1 2 2 5 7 7 4 6 12 13 15 13 8 13 16 9 15 10 10 14 17 10 9 14 13 11 8 10 10 12 11 12 13
5 4 5 5 5 2 2 1 1 1 2 2 4 4 4 4 7 6 5 7 14 12 18 10 7 12 17 18 6 3 2 13 10 12 12 14 15 6 4 2 5 7 9 9 11
5 3 1 4 4 3 3 2 2 3 1 2 3 3 1 6 5 4 7 10 11 16 11 12 9 13 15 9 3 1 8 10 11 18 19 14 16 7 3 3 6 9 8 9 7
4 3 3 2 1 5 3 3 4 2 5 3 6 5 6 9 6 7 13 8 13 16 7 6 12 14 13 20 16 12 12 10 2 8 16 18 17 7 6 7 6 6 10 10 9
1 2 3 1 3 3 4 2 5 4 4 4 6 7 6 10 11 14 11 14 14 10 9 8 13 15 19 17 18 18 16 16 11 14 8 17 28 9 5 6 5 4 4 7 10
4 3 3 2 3 6 4 4 6 4 5 5 9 4 8 9 12 14 16 17 19 16 13 14 12 15 18 20 21 18 16 15 14 10 12 13 19 4 7 2 6 9 9 9 8
0 1 4 4 4 5 4 4 3 2 6 9 7 9 11 10 11 17 19 20 20 19 17 14 10 11 15 16 16 14 10 4 6 7 8 10 16 1 4 5 8 9 9 9 10
Wind_Direction
10 7 4 1 358 355 353 350 345 340 336 331 330 329 331 328 324 311 259 237 196 167 151 157 171 176 189 230 243 252 264 271 322 328 347 356 349 43 340 214 205 196 71 118 148
4 1 359 356 353 350 347 343 339 336 332 326 324 327 327 324 301 273 255 222 191 165 163 169 176 177 205 241 224 242 270 291 335 316 319 321 331 346 279 192 214 179 122 139 153
358 356 353 350 347 345 342 338 336 333 330 323 318 317 320 324 279 143 68 180 174 163 177 186 176 194 234 237 237 257 261 299 293 292 310 309 310 339 284 266 224 208 170 162 164
353 352 350 346 343 340 338 334 332 330 323 319 314 310 315 285 297 106 35 194 172 167 179 182 183 202 232 230 232 254 266 268 286 304 301 300 315 301 305 297 7 201 167 175 173
350 348 346 343 340 336 334 332 329 325 320 319 317 310 281 237 255 2 331 172 163 181 194 201 209 239 256 271 253 253 269 275 278 282 276 294 283 289 290 294 149 168 166 183 181
347 345 343 341 338 335 332 328 325 319 318 317 318 306 237 257 69 116 127 148 184 204 217 227 227 256 278 274 269 288 293 283 274 270 269 267 283 286 271 332 172 180 186 186 185
344 345 343 340 338 334 330 326 324 321 316 333 329 168 244 257 100 131 162 176 203 239 250 237 249 244 271 261 268 271 269 273 269 269 272 282 265 257 259 212 252 218 211 194 190
343 344 342 338 337 333 326 326 325 324 313 336 44 202 261 209 277 253 239 251 239 242 249 256 248 249 260 273 263 258 259 276 268 295 290 270 282 277 269 247 282 230 222 206 195
340 340 339 337 337 334 327 326 326 318 299 326 267 258 160 257 249 157 190 199 300 211 213 230 218 230 232 244 257 231 264 275 253 291 291 256 298 297 264 272 276 262 212 212 198
336 337 337 336 338 332 330 330 360 327 305 267 258 234 172 342 310 281 250 245 266 187 178 210 215 224 224 240 247 255 258 241 268 255 283 286 280 282 281 269 271 263 206 212 206
333 336 335 335 339 340 342 310 255 176 56 350 331 309 348 336 291 174 245 200 221 235 247 196 232 233 250 242 261 276 282 276 274 275 264 282 276 275 274 273 256 247 205 216 215
336 338 336 335 342 354 2 46 51 336 302 137 293 279 279 320 289 111 171 212 210 240 237 229 243 257 265 266 259 260 259 260 266 267 252 277 290 297 279 267 272 263 215 214 198
337 340 338 338 348 14 31 73 351 313 255 120 326 311 356 301 330 17 263 313 249 254 248 249 267 271 261 248 248 248 253 261 262 267 262 266 274 266 241 269 276 252 230 205 201
341 341 339 336 349 341 81 335 328 235 246 71 103 95 310 311 223 238 296 294 239 292 307 277 288 271 248 250 253 258 251 243 261 263 263 231 281 286 279 274 270 253 208 204 200
337 337 332 332 300 298 353 323 316 229 243 51 23 322 306 302 337 108 346 226 290 301 271 284 298 278 257 261 262 261 266 258 254 262 265 254 250 268 244 259 253 243 211 214 197
337 337 329 345 267 277 315 317 235 230 145 133 319 342 325 197 83 309 292 204 289 286 252 268 287 254 265 279 268 268 265 258 246 254 252 243 257 259 258 241 248 255 296 351 333
339 337 340 301 347 315 316 237 245 275 154 29 336 332 296 339 243 0 343 41 11 339 346 312 294 240 267 263 255 255 235 239 231 231 248 249 247 249 269 238 339 339 342 331 308
341 341 336 311 318 323 273 239 252 57 30 15 322 285 25 357 38 343 315 311 48 358 316 349 324 3 345 286 280 244 248 254 259 251 259 173 233 250 219 282 143 358 342 325 331
345 332 296 328 330 332 262 246 35 74 353 335 229 313 71 46 306 319 345 349 29 21 359 312 316 315 346 331 273 269 245 261 271 268 269 274 256 225 250 260 261 324 323 336 330
333 294 346 337 323 280 254 9 151 7 319 258 340 334 343 9 325 343 313 66 355 7 343 320 299 301 330 297 250 249 263 237 235 262 266 255 253 248 247 273 287 302 334 343 338
292 263 51 328 299 240 279 47 174 105 292 272 308 282 330 337 328 333 347 329 21 343 334 329 292 305 297 317 331 307 261 278 261 269 280 282 266 266 299 294 307 307 355 350 338
302 256 10 330 244 270 204 6 19 245 185 229 276 283 290 321 309 308 309 324 358 333 325 344 298 294 308 291 325 299 17 316 326 292 282 276 270 75 70 303 324 339 4 3 2
319 303 1 308 268 188 142 221 267 262 281 254 254 248 285 295 298 286 317 320 331 332 330 328 301 307 279 241 261 104 344 348 316 296 279 268 273 69 46 35 13 24 20 40 19
291 267 150 204 326 306 267 223 233 209 275 279 291 259 269 275 265 282 301 305 320 312 2 263 267 274 283 305 319 313 308 308 311 274 294 303 344 101 28 8 7 25 58 70 66
305 61 1 321 148 289 270 310 251 245 219 249 225 247 290 286 288 283 293 311 311 318 299 299 283 284 282 286 285 284 289 295 280 255 268 303 293 30 41 353 46 43 91 71 63
306 304 183 262 263 259 168 223 264 240 260 233 256 316 284 278 289 303 310 305 307 302 300 304 286 287 288 273 269 276 285 289 281 291 260 285 293 57 68 278 70 29 35 41 25
42 261 279 134 208 243 248 277 290 292 240 271 291 299 281 316 329 303 291 283 280 284 280 282 277 292 284 291 285 279 286 322 284 265 306 314 347 127 131 158 69 73 70 63 50
Height
824 820 817 814 810 806 802 799 795 792 789 787 784 781 779 775 771 770 765 760 760 763 768 771 774 775 774 768 767 760 767 761 753 753 746 723 730 720 720 726 733 734 734 737 751
824 820 817 813 809 805 801 797 792 789 786 784 781 780 777 773 769 764 759 756 756 759 765 767 769 771 769 764 761 763 759 753 736 735 740 731 728 726 732 731 737 737 740 746 752
823 819 815 811 807 802 798 794 790 786 782 780 778 776 775 772 765 751 756 755 756 758 763 763 764 765 766 758 756 754 764 738 735 731 729 731 727 719 726 733 726 734 740 744 749
823 819 814 810 805 801 796 791 787 782 779 776 773 773 772 772 773 755 756 757 760 763 763 762 760 764 764 762 747 764 745 740 736 729 734 736 724 725 719 717 711 713 727 738 742
822 817 812 807 802 797 793 788 783 779 775 772 769 769 771 764 757 756 756 756 759 762 761 760 761 759 762 750 749 754 743 736 731 729 733 731 732 728 720 706 710 714 724 732 737
822 817 811 806 800 795 790 784 780 775 772 769 767 767 768 769 756 756 757 759 761 761 758 756 752 749 754 753 755 742 741 737 731 729 728 735 729 720 714 707 714 718 722 726 730
820 814 809 803 797 791 785 780 776 772 769 767 765 765 763 756 756 757 758 758 759 758 754 753 752 753 747 752 740 744 752 737 729 723 724 722 735 728 710 709 715 722 722 723 728
818 813 807 800 794 787 780 775 771 768 768 766 764 766 756 754 755 754 755 755 755 755 754 753 753 749 749 742 748 754 745 756 723 727 723 732 744 714 700 710 714 715 719 721 725
816 811 805 799 792 784 776 771 767 767 766 765 765 763 753 753 752 751 751 750 751 751 751 751 750 748 745 758 757 746 763 746 738 725 729 731 738 719 708 709 711 708 714 718 721
814 810 804 798 791 782 774 768 767 766 765 765 765 764 750 753 750 750 749 750 749 746 749 750 748 752 749 751 767 751 743 737 750 730 726 732 730 715 706 705 704 699 706 712 714
812 808 803 797 790 782 773 769 766 763 761 763 760 759 751 752 748 746 746 745 745 746 753 746 757 757 745 738 739 738 741 747 735 725 734 731 726 719 704 700 698 697 701 707 710
811 807 801 795 787 783 778 775 786 788 772 761 761 760 756 755 750 742 745 747 747 751 738 749 759 737 730 735 739 740 747 746 729 721 733 727 725 712 703 700 693 692 694 700 704
810 805 798 790 786 785 784 786 787 786 773 759 756 755 751 753 749 743 741 740 744 745 740 748 733 725 737 741 744 739 744 739 738 721 718 726 729 712 698 692 686 683 684 689 695
808 803 798 790 789 788 785 787 786 785 765 767 756 753 749 745 750 740 740 742 740 746 738 736 723 728 733 739 733 741 720 724 733 735 745 715 751 720 707 698 690 681 680 684 688
807 802 797 793 793 788 789 786 785 784 778 766 757 752 745 750 744 741 739 737 745 741 745 738 734 735 738 729 720 730 714 720 726 732 731 727 739 719 701 706 693 678 673 672 675
804 799 793 792 792 790 787 785 784 776 782 771 760 759 751 745 746 739 737 733 733 739 733 734 719 727 722 715 714 713 721 723 725 728 744 725 728 722 706 696 685 675 671 674 677
802 796 791 791 789 788 786 782 775 773 771 776 771 760 759 756 750 747 746 745 752 759 749 733 719 710 713 725 713 720 730 748 752 745 743 710 715 711 689 684 691 691 686 682 679
798 793 792 790 789 787 785 774 787 781 777 768 767 759 764 759 752 751 749 749 742 746 748 750 752 721 712 721 725 718 724 737 757 743 727 700 730 711 685 681 685 684 684 680 677
796 795 793 792 788 787 779 777 776 779 776 775 765 768 766 759 762 754 751 752 750 747 766 755 748 717 709 709 711 717 729 708 724 715 727 712 701 685 685 681 676 683 683 680 677
799 794 790 790 788 786 776 789 779 775 775 773 777 771 775 768 764 759 757 748 753 745 742 748 762 723 713 703 696 709 698 726 721 749 753 726 715 708 694 692 682 686 685 685 677
799 788 790 790 788 777 775 779 779 773 775 776 776 775 774 774 767 764 761 751 750 749 743 740 746 740 720 716 721 715 717 712 707 717 754 748 724 677 684 683 693 690 691 690 681
798 786 790 789 782 779 778 782 792 775 771 772 773 772 773 771 770 767 765 757 750 751 757 743 750 752 736 710 707 712 727 729 728 732 711 712 709 673 686 692 694 693 697 696 695
796 790 789 788 780 778 782 781 779 776 775 773 772 771 769 773 781 766 763 752 752 754 758 756 752 759 738 713 712 720 725 723 730 726 723 726 705 684 694 694 702 704 702 703 703
801 788 784 785 786 785 785 782 781 776 776 775 772 769 771 772 765 773 767 756 753 753 759 754 754 757 758 738 721 731 728 718 737 746 728 713 705 699 707 711 712 709 711 710 709
802 795 801 784 787 789 789 786 782 780 776 773 771 772 776 780 771 768 759 756 753 750 749 751 764 750 737 730 725 724 723 719 723 720 744 748 707 700 713 720 718 710 709 706 703
804 799 799 792 796 793 796 783 783 778 782 774 778 772 772 778 772 773 765 763 763 753 753 749 763 748 747 730 721 721 716 712 713 717 721 714 714 708 721 720 720 723 715 715 714
811 810 804 800 790 791 779 782 784 788 777 776 777 779 775 768 768 765 760 755 753 756 757 758 755 753 751 727 722 731 713 713 720 724 724 725 732 717 725 723 722 720 719 718 720